This is the latest recevied weather packets stored in our database for station/object KC5TIL. If no packets are shown the sender has not sent any weather packets the latest 10 day(s).
| Time | Temp. | Humidity | Pressure | Rain* | Wind** | Luminosity | Snow |
|---|---|---|---|---|---|---|---|
| 1788410503 | 28.89° C | 69% | 1014.8 hPa | 0 mm | - | 0 W/m² | - |
| 1788410200 | 28.89° C | 68% | 1014.6 hPa | 0 mm | - | 0 W/m² | - |
| 1788409898 | 29.44° C | 69% | 1014.6 hPa | 0 mm | - | 0 W/m² | - |
| 1788409598 | 29.44° C | 68% | 1014.4 hPa | 0 mm | - | 0 W/m² | - |
| 1788409293 | 29.44° C | 69% | 1014.7 hPa | 0 mm | - | 0 W/m² | - |
| 1788408990 | 29.44° C | 68% | 1014.5 hPa | 0 mm | - | 0 W/m² | - |
| 1788408686 | 30° C | 68% | 1014.5 hPa | 0 mm | - | 0 W/m² | - |
| 1788408384 | 30° C | 67% | 1014.5 hPa | 0 mm | - | 0 W/m² | - |
| 1788408081 | 30° C | 68% | 1014.6 hPa | 0 mm | - | 0 W/m² | - |
| 1788407776 | 30° C | 67% | 1014.6 hPa | 0 mm | - | 0 W/m² | - |
| 1788407472 | 30° C | 66% | 1014.5 hPa | 0 mm | - | 0 W/m² | - |
| 1788407166 | 30° C | 65% | 1014.5 hPa | 0 mm | - | 0 W/m² | - |
| 1788406861 | 30.56° C | 65% | 1014.6 hPa | 0 mm | - | 0 W/m² | - |
| 1788406557 | 30.56° C | 65% | 1014.4 hPa | 0 mm | - | 0 W/m² | - |
| 1788406252 | 30.56° C | 65% | 1014.4 hPa | 0 mm | - | 0 W/m² | - |
| 1788405947 | 30.56° C | 65% | 1014.4 hPa | 0 mm | - | 0 W/m² | - |
| 1788405642 | 30.56° C | 64% | 1014.5 hPa | 0 mm | - | 0 W/m² | - |
| 1788405351 | 30.56° C | 64% | 1014.4 hPa | 0 mm | - | 0 W/m² | - |
| 1788405037 | 30.56° C | 63% | 1014.3 hPa | 0 mm | - | 0 W/m² | - |
| 1788404732 | 30.56° C | 64% | 1014.4 hPa | 0 mm | - | 0 W/m² | - |
| 1788404429 | 31.11° C | 62% | 1014.2 hPa | 0 mm | - | 0 W/m² | - |
| 1788404124 | 31.11° C | 64% | 1014.1 hPa | 0 mm | - | 0 W/m² | - |
| 1788403820 | 31.11° C | 60% | 1014.1 hPa | 0 mm | - | 0 W/m² | - |
| 1788403519 | 31.11° C | 62% | 1013.7 hPa | 0 mm | - | 0 W/m² | - |
| 1788403213 | 31.11° C | 61% | 1013.7 hPa | 0 mm | - | 0 W/m² | - |
* Rain latest hour (hover to see other rain measurements)
** Current wind speed in m/s (hover to see current wind gust speed)